GW4949 Weather Reports


Display with metric or nautical units.
time (UTC)temp
F
wind
direction
speed
MPH
gust
MPH
rain 1hr
in
rain 24hr
in
rain mn
in
humidity
%
barometer
mb
20260502130452 49 62 0.0 0.0 0.00 0.00 0.00 34 1020.8
20260502123435 47 51 0.0 0.0 0.00 0.00 0.00 37 1020.8
20260502122932 47 128 1.0 2.0 0.00 0.00 0.00 36 1020.8
20260502122428 47 36 0.0 0.0 0.00 0.00 0.00 37 1020.8
20260502121926 47 39 0.0 0.0 0.00 0.00 0.00 36 1020.8
20260502121423 47 49 0.0 0.0 0.00 0.00 0.00 37 1020.8
20260502120921 46 62 0.0 0.0 0.00 0.00 0.00 37 1020.8
20260502120416 46 107 0.0 0.0 0.00 0.00 0.00 38 1020.8
20260502115914 45 107 0.0 0.0 0.00 0.00 0.00 40 1020.8
20260502115411 45 80 0.0 0.0 0.00 0.00 0.00 43 1020.8
20260502114906 45 80 0.0 0.0 0.00 0.00 0.00 41 1020.8
20260502114404 46 81 0.0 0.0 0.00 0.00 0.00 41 1020.8
20260502113901 46 81 0.0 0.0 0.00 0.00 0.00 40 1020.8
20260502113359 46 81 0.0 0.0 0.00 0.00 0.00 38 1020.8
20260502112857 46 142 0.0 0.0 0.00 0.00 0.00 39 1020.3
20260502112354 48 142 0.0 0.0 0.00 0.00 0.00 40 1020.8
20260502111851 48 142 0.0 0.0 0.00 0.00 0.00 36 1020.8
20260502111348 48 142 0.0 0.0 0.00 0.00 0.00 36 1020.8
20260502110846 49 141 0.0 0.0 0.00 0.00 0.00 34 1020.3
20260502110344 49 152 1.0 1.0 0.00 0.00 0.00 33 1020.8
20260502105841 49 124 0.0 0.0 0.00 0.00 0.00 33 1020.3
20260502105338 48 138 0.0 1.0 0.00 0.00 0.00 35 1020.3
20260502104836 47 121 1.0 1.0 0.00 0.00 0.00 38 1020.8
20260502104333 47 139 0.0 0.0 0.00 0.00 0.00 41 1020.8
20260502103830 48 140 0.0 0.0 0.00 0.00 0.00 38 1020.8
20260502103327 48 68 0.0 0.0 0.00 0.00 0.00 35 1020.8
20260502102825 49 68 0.0 0.0 0.00 0.00 0.00 34 1020.3
20260502102321 50 68 0.0 0.0 0.00 0.00 0.00 32 1020.8
20260502101819 51 144 0.0 1.0 0.00 0.00 0.00 31 1020.8
20260502101317 51 49 2.0 3.0 0.00 0.00 0.00 31 1020.3
20260502100815 50 40 0.0 1.0 0.00 0.00 0.00 32 1020.3
20260502100313 50 41 0.0 0.0 0.00 0.00 0.00 32 1020.0
20260502091247 49 59 0.0 0.0 0.00 0.00 0.00 34 1020.3
20260502090745 48 154 1.0 2.0 0.00 0.00 0.00 35 1020.3
20260502090241 49 147 0.0 0.0 0.00 0.00 0.00 40 1020.8
20260502071142 52 53 0.0 0.0 0.00 0.00 0.00 32 1020.3
20260502070640 52 101 0.0 1.0 0.00 0.00 0.00 32 1020.8
20260502070138 52 68 1.0 2.0 0.00 0.00 0.00 33 1020.3
20260502065636 52 137 1.0 2.0 0.00 0.00 0.00 35 1020.8
20260502065133 51 100 1.0 2.0 0.00 0.00 0.00 35 1020.8
20260502064632 51 81 1.0 1.0 0.00 0.00 0.00 36 1020.3
20260502064128 51 65 1.0 1.0 0.00 0.00 0.00 37 1020.3
20260502063626 51 72 1.0 1.0 0.00 0.00 0.00 38 1020.8
20260502063124 51 142 0.0 0.0 0.00 0.00 0.00 39 1020.8
20260502062620 51 113 0.0 1.0 0.00 0.00 0.00 40 1020.3
20260502062118 51 141 1.0 1.0 0.00 0.00 0.00 40 1020.3
20260502061616 50 40 1.0 2.0 0.00 0.00 0.00 40 1020.3
20260502061114 51 41 0.0 0.0 0.00 0.00 0.00 41 1020.8
20260502060613 51 57 0.0 0.0 0.00 0.00 0.00 41 1020.8
20260502060110 51 36 1.0 1.0 0.00 0.00 0.00 41 1020.3
20260502055608 51 42 2.0 3.0 0.00 0.00 0.00 40 1020.8
20260502055106 51 130 0.0 0.0 0.00 0.00 0.00 40 1020.8
20260502054605 52 35 0.0 0.0 0.00 0.00 0.00 40 1020.3
20260502054102 52 129 1.0 1.0 0.00 0.00 0.00 41 1020.3
20260502053558 52 53 0.0 0.0 0.00 0.00 0.00 41 1020.3
20260502053056 52 88 1.0 1.0 0.00 0.00 0.00 41 1020.3
20260502052554 53 39 1.0 1.0 0.00 0.00 0.00 41 1020.3
20260502052052 53 132 2.0 2.0 0.00 0.00 0.00 40 1020.3
20260502051550 53 83 0.0 0.0 0.00 0.00 0.00 40 1020.3
20260502051048 53 175 1.0 2.0 0.00 0.00 0.00 41 1020.8
20260502050543 52 104 0.0 0.0 0.00 0.00 0.00 42 1020.3
20260502050041 52 91 1.0 1.0 0.00 0.00 0.00 42 1020.3
20260502045537 52 116 0.0 1.0 0.00 0.00 0.00 42 1020.3
20260502045035 52 119 2.0 2.0 0.00 0.00 0.00 42 1020.3
20260502044531 52 56 0.0 0.0 0.00 0.00 0.00 42 1020.3
20260502044027 52 54 0.0 0.0 0.00 0.00 0.00 42 1020.3
20260502043525 52 47 0.0 0.0 0.00 0.00 0.00 42 1020.3
20260502043021 52 27 0.0 0.0 0.00 0.00 0.00 43 1020.0
20260502042516 52 340 0.0 0.0 0.00 0.00 0.00 44 1020.3
20260502042014 52 340 0.0 0.0 0.00 0.00 0.00 44 1020.3
20260502041512 52 340 0.0 0.0 0.00 0.00 0.00 43 1020.3
20260502041009 52 340 0.0 0.0 0.00 0.00 0.00 44 1020.3
20260502040505 52 340 0.0 0.0 0.00 0.00 0.00 45 1020.3
20260502040003 52 340 0.0 0.0 0.00 0.00 0.00 45 1020.3
20260502035457 52 340 0.0 0.0 0.00 0.00 0.00 44 1020.3
20260502034955 53 340 0.0 0.0 0.00 0.00 0.00 42 1020.3
20260502034454 54 340 0.0 0.0 0.00 0.00 0.00 41 1020.0
20260502033952 54 339 0.0 0.0 0.00 0.00 0.00 42 1020.0
20260502033449 54 334 0.0 0.0 0.00 0.00 0.00 40 1020.0
20260502032945 0 0.0 0.0 0.00 0.00 0.00 1020.0
20260502032443 0 0.0 0.0 0.00 0.00 0.00 1019.6
20260502031939 0 0.0 0.0 0.00 0.00 0.00 1019.6
20260502031438 0 0.0 0.0 0.00 0.00 0.00 1019.6
20260502030935 57 159 0.0 0.0 0.00 0.00 0.00 35 1019.2
20260502030433 57 159 0.0 0.0 0.00 0.00 0.00 35 1019.6
20260502025931 57 159 0.0 0.0 0.00 0.00 0.00 34 1019.2
20260502025427 57 159 0.0 0.0 0.00 0.00 0.00 34 1019.6
20260502024925 58 162 0.0 0.0 0.00 0.00 0.00 33 1018.8
20260502024423 59 168 0.0 0.0 0.00 0.00 0.00 32 1019.6
20260502023921 59 173 0.0 0.0 0.00 0.00 0.00 32 1019.2
20260502023418 59 179 1.0 1.0 0.00 0.00 0.00 32 1019.2
20260502022916 60 190 1.0 1.0 0.00 0.00 0.00 33 1019.2
20260502022412 60 226 3.0 5.0 0.00 0.00 0.00 34 1018.8
20260502021909 60 188 1.0 1.0 0.00 0.00 0.00 35 1018.8
20260502021406 61 185 0.0 1.0 0.00 0.00 0.00 36 1018.8
20260502020903 62 267 2.0 3.0 0.00 0.00 0.00 35 1018.8
20260502020401 63 238 2.0 2.0 0.00 0.00 0.00 34 1018.8
20260502015858 63 196 1.0 1.0 0.00 0.00 0.00 33 1018.5
20260502015355 64 167 1.0 1.0 0.00 0.00 0.00 32 1018.8
20260502014852 63 225 3.0 5.0 0.00 0.00 0.00 32 1018.5
20260502014349 64 2 3.0 3.0 0.00 0.00 0.00 31 1018.5
20260502013845 64 80 1.0 2.0 0.00 0.00 0.00 31 1018.5
20260502013341 64 321 2.0 3.0 0.00 0.00 0.00 31 1018.5
20260502012837 64 272 4.0 5.0 0.00 0.00 0.00 31 1018.5
20260502012336 64 192 1.0 1.0 0.00 0.00 0.00 31 1018.5
20260502011832 64 343 3.0 3.0 0.00 0.00 0.00 31 1018.8
20260502011328 65 271 6.0 7.0 0.00 0.00 0.00 31 1018.8
20260502010826 65 165 2.0 3.0 0.00 0.00 0.00 31 1018.5
20260502010322 64 353 2.0 2.0 0.00 0.00 0.00 31 1018.5
20260502005819 64 315 4.0 5.0 0.00 0.00 0.00 31 1018.5
20260502005317 65 347 4.0 6.0 0.00 0.00 0.00 30 1018.5
20260502004814 65 308 3.0 3.0 0.00 0.00 0.00 30 1018.5
20260502004310 65 162 1.0 2.0 0.00 0.00 0.00 30 1018.5
20260502003808 65 288 3.0 3.0 0.00 0.00 0.00 30 1018.8
20260502003305 65 354 3.0 5.0 0.00 0.00 0.00 30 1018.5
20260502002800 65 329 4.0 6.0 0.00 0.00 0.00 30 1018.5
20260502002258 65 283 5.0 5.0 0.00 0.00 0.00 30 1018.5
20260502001755 65 79 2.0 3.0 0.00 0.00 0.00 29 1018.5
20260502001254 65 291 5.0 6.0 0.00 0.00 0.00 30 1018.5
20260502000751 66 330 4.0 5.0 0.00 0.00 0.00 30 1018.5
20260502000249 65 153 3.0 3.0 0.00 0.00 0.00 30 1018.8
20260501235744 65 343 5.0 6.0 0.00 0.00 0.00 30 1018.8
20260501235240 65 268 5.0 6.0 0.00 0.00 0.00 30 1018.8
20260501234736 65 337 4.0 5.0 0.00 0.00 0.00 30 1018.5
20260501234233 65 16 4.0 5.0 0.00 0.00 0.00 29 1018.8
20260501233731 65 349 3.0 3.0 0.00 0.00 0.00 30 1018.8
20260501233229 64 315 5.0 6.0 0.00 0.00 0.00 30 1018.8
20260501232724 65 343 5.0 6.0 0.00 0.00 0.00 30 1018.8
20260501232222 65 358 5.0 7.0 0.00 0.00 0.00 29 1018.8
20260501231719 66 278 4.0 6.0 0.00 0.00 0.00 29 1018.8
20260501231217 65 119 1.0 1.0 0.00 0.00 0.00 29 1018.8
20260501230715 65 342 3.0 3.0 0.00 0.00 0.00 29 1018.8
20260501230214 66 174 0.0 0.0 0.00 0.00 0.00 27 1018.5
20260501225710 65 29 3.0 3.0 0.00 0.00 0.00 28 1018.8
20260501225208 66 278 7.0 9.0 0.00 0.00 0.00 28 1018.8
20260501224703 66 81 3.0 5.0 0.00 0.00 0.00 28 1018.8
20260501224201 66 285 3.0 3.0 0.00 0.00 0.00 27 1018.8
20260501223657 66 63 3.0 3.0 0.00 0.00 0.00 28 1018.8
20260501223154 65 347 4.0 5.0 0.00 0.00 0.00 27 1018.8
20260501222650 64 358 3.0 3.0 0.00 0.00 0.00 27 1018.8
20260501222147 65 277 7.0 7.0 0.00 0.00 0.00 28 1018.8
20260501221644 65 30 4.0 5.0 0.00 0.00 0.00 29 1019.2
20260501221141 65 161 0.0 0.0 0.00 0.00 0.00 28 1019.2
20260501220639 65 326 3.0 5.0 0.00 0.00 0.00 27 1019.2
20260501220136 65 256 0.0 2.0 0.00 0.00 0.00 28 1019.6
20260501215633 65 295 3.0 3.0 0.00 0.00 0.00 28 1019.6
20260501215128 64 293 6.0 7.0 0.00 0.00 0.00 27 1019.2
20260501214623 64 268 6.0 7.0 0.00 0.00 0.00 28 1019.2
20260501214119 64 263 5.0 7.0 0.00 0.00 0.00 29 1019.6
20260501213616 65 311 4.0 6.0 0.00 0.00 0.00 27 1019.2
20260501213112 65 274 5.0 7.0 0.00 0.00 0.00 27 1019.6
20260501212609 64 44 2.0 2.0 0.00 0.00 0.00 28 1019.6
20260501212105 64 217 2.0 3.0 0.00 0.00 0.00 28 1019.6
20260501211602 64 316 5.0 7.0 0.00 0.00 0.00 28 1019.2
20260501211100 64 331 5.0 6.0 0.00 0.00 0.00 29 1019.6
20260501210556 64 261 4.0 5.0 0.00 0.00 0.00 26 1019.6
20260501210053 64 252 6.0 8.0 0.00 0.00 0.00 27 1019.6
20260501205549 64 57 3.0 3.0 0.00 0.00 0.00 26 1019.6
20260501205047 64 269 5.0 6.0 0.00 0.00 0.00 27 1019.6
20260501204543 64 276 4.0 5.0 0.00 0.00 0.00 27 1019.6
20260501204039 65 345 4.0 5.0 0.00 0.00 0.00 28 1019.6
20260501203536 65 261 6.0 7.0 0.00 0.00 0.00 26 1019.6
20260501203034 66 85 2.0 2.0 0.00 0.00 0.00 23 1019.6
20260501202531 65 87 3.0 5.0 0.00 0.00 0.00 24 1019.6
20260501202027 64 258 3.0 3.0 0.00 0.00 0.00 25 1019.6
20260501201525 64 331 4.0 5.0 0.00 0.00 0.00 23 1019.6
20260501201021 64 280 3.0 3.0 0.00 0.00 0.00 24 1019.6
20260501200518 64 164 4.0 6.0 0.00 0.00 0.00 24 1019.6
20260501200015 64 156 0.0 0.0 0.00 0.00 0.00 24 1019.6
20260501195512 65 53 3.0 3.0 0.00 0.00 0.00 24 1019.6
20260501195008 65 175 2.0 2.0 0.00 0.00 0.00 24 1019.2
20260501194504 64 322 4.0 5.0 0.00 0.00 0.00 25 1019.6
20260501194000 64 264 8.0 9.0 0.00 0.00 0.00 24 1019.6
20260501193458 65 323 5.0 6.0 0.00 0.00 0.00 25 1019.6
20260501192955 65 168 3.0 3.0 0.00 0.00 0.00 22 1019.6
20260501192453 64 208 5.0 7.0 0.00 0.00 0.00 23 1019.6
20260501191950 64 243 4.0 5.0 0.00 0.00 0.00 24 1020.0
20260501191447 64 213 1.0 1.0 0.00 0.00 0.00 23 1019.6
20260501190944 64 72 3.0 3.0 0.00 0.00 0.00 25 1019.6
20260501190440 63 1 3.0 5.0 0.00 0.00 0.00 26 1019.6
20260501185935 63 251 4.0 6.0 0.00 0.00 0.00 25 1020.0
20260501185431 63 215 4.0 5.0 0.00 0.00 0.00 25 1020.0
20260501184927 64 267 4.0 7.0 0.00 0.00 0.00 24 1020.0
20260501184424 64 225 2.0 2.0 0.00 0.00 0.00 25 1020.0
20260501183919 63 193 3.0 3.0 0.00 0.00 0.00 25 1020.3
20260501183416 63 279 3.0 3.0 0.00 0.00 0.00 23 1020.0
20260501182913 64 346 3.0 5.0 0.00 0.00 0.00 24 1020.3
20260501182410 62 174 2.0 2.0 0.00 0.00 0.00 25 1020.0
20260501181906 63 290 4.0 6.0 0.00 0.00 0.00 25 1020.3
20260501181403 63 309 4.0 5.0 0.00 0.00 0.00 25 1020.3
20260501180901 64 359 3.0 3.0 0.00 0.00 0.00 26 1020.3
20260501180357 64 194 2.0 3.0 0.00 0.00 0.00 25 1020.3
20260501175854 62 95 3.0 6.0 0.00 0.00 0.00 26 1020.8
20260501175351 63 149 1.0 2.0 0.00 0.00 0.00 26 1020.3
20260501174847 63 351 3.0 3.0 0.00 0.00 0.00 26 1020.3
20260501174345 63 102 2.0 2.0 0.00 0.00 0.00 25 1020.8
20260501173843 62 17 3.0 5.0 0.00 0.00 0.00 26 1020.3
20260501173340 63 135 1.0 1.0 0.00 0.00 0.00 25 1020.8
20260501172836 63 216 2.0 2.0 0.00 0.00 0.00 27 1021.1
20260501172331 62 98 2.0 3.0 0.00 0.00 0.00 27 1020.8
20260501171827 62 115 0.0 1.0 0.00 0.00 0.00 27 1020.8
20260501171324 62 96 3.0 3.0 0.00 0.00 0.00 27 1020.8
20260501170820 61 61 3.0 3.0 0.00 0.00 0.00 27 1020.8
20260501170317 61 76 3.0 6.0 0.00 0.00 0.00 27 1020.8
20260501165814 61 107 3.0 3.0 0.00 0.00 0.00 28 1020.8
20260501165313 60 100 1.0 2.0 0.00 0.00 0.00 30 1020.8
20260501164810 60 109 2.0 3.0 0.00 0.00 0.00 29 1020.8
20260501164308 60 106 8.0 10.0 0.00 0.00 0.00 29 1021.1
20260501163803 59 51 4.0 7.0 0.00 0.00 0.00 30 1021.1
20260501163300 59 87 2.0 2.0 0.00 0.00 0.00 31 1020.8
20260501162756 60 112 4.0 6.0 0.00 0.00 0.00 31 1020.8
20260501162253 60 85 3.0 5.0 0.00 0.00 0.00 32 1020.8
20260501161750 60 65 4.0 5.0 0.00 0.00 0.00 32 1020.8
20260501161248 59 95 4.0 5.0 0.00 0.00 0.00 33 1020.8
20260501160743 59 206 4.0 5.0 0.00 0.00 0.00 35 1020.8
20260501160240 59 106 4.0 5.0 0.00 0.00 0.00 34 1020.8
20260501155737 58 204 2.0 2.0 0.00 0.00 0.00 35 1020.8
20260501155235 59 189 2.0 2.0 0.00 0.00 0.00 36 1020.8
20260501154731 57 164 1.0 1.0 0.00 0.00 0.00 36 1020.8
20260501154228 57 190 3.0 5.0 0.00 0.00 0.00 38 1020.8
20260501153725 57 186 0.0 1.0 0.00 0.00 0.00 37 1020.8
20260501153223 56 195 1.0 2.0 0.00 0.00 0.00 39 1020.8
20260501152719 57 179 2.0 2.0 0.00 0.00 0.00 38 1021.1
20260501152216 57 155 2.0 2.0 0.00 0.00 0.00 39 1020.8
20260501151713 56 120 2.0 3.0 0.00 0.00 0.00 37 1020.8
20260501151209 55 61 3.0 5.0 0.00 0.00 0.00 39 1020.3
20260501150706 55 103 2.0 3.0 0.00 0.00 0.00 40 1020.8
20260501150202 55 78 5.0 7.0 0.00 0.00 0.00 39 1020.8
20260501145658 54 112 2.0 3.0 0.00 0.00 0.00 40 1020.8
20260501145156 54 103 3.0 5.0 0.00 0.00 0.00 40 1020.8
20260501144652 53 125 2.0 2.0 0.00 0.00 0.00 41 1020.8
20260501144147 52 62 2.0 3.0 0.00 0.00 0.00 42 1020.8
20260501143644 52 94 3.0 7.0 0.00 0.00 0.00 42 1020.8
20260501143142 51 63 3.0 5.0 0.00 0.00 0.00 42 1020.8
20260501142638 51 53 1.0 2.0 0.00 0.00 0.00 44 1020.8
20260501142134 50 311 2.0 3.0 0.00 0.00 0.00 44 1020.8
20260501141630 50 36 3.0 5.0 0.00 0.00 0.00 44 1020.8
20260501141128 50 63 7.0 11.0 0.00 0.00 0.00 44 1020.8
20260501140624 49 135 4.0 7.0 0.00 0.00 0.00 44 1020.8
20260501140121 49 63 5.0 8.0 0.00 0.00 0.00 45 1020.8
20260501135618 48 133 2.0 3.0 0.00 0.00 0.00 45 1020.3
20260501135116 48 71 5.0 7.0 0.00 0.00 0.00 47 1020.0
20260501134611 48 74 4.0 6.0 0.00 0.00 0.00 46 1020.0